Hourly Data Report for May 16, 2012

All times are specified in Local Standard Time (LST). Add 1 hour to adjust for Daylight Saving Time where and when it is observed.

PENTICTON A
BRITISH COLUMBIA

49°27'45.000" N
119°36'08.000" W
344.40 m
1126146
71889
YYF

Download Data

Hourly Data (May 2012)
Hourly Data Report for May 16, 2012
Temp Definition
°C
Dew Point Temp Definition
°C
Rel Hum Definition
%
Wind Dir Definition
10's deg

Wind Spd Definition
km/h
Visibility Definition
km
Stn Press Definition
kPa
Hmdx Definition


Wind Chill Definition


Weather Definition


TIME
00:00 Legend Double Dagger 13.8 3.3 49 33 6 10.0 97.17     LegendNANA
01:00 Legend Double Dagger 14.8 3.7 47 33 14 10.0 97.15     Mostly Cloudy
02:00 Legend Double Dagger 14.5 3.4 47 32 9 10.0 97.15     LegendNANA
03:00 Legend Double Dagger 13.6 4.0 52 34 10 10.0 97.15     LegendNANA
04:00 Legend Double Dagger 14.5 4.0 49 33 10 10.0 97.19     Cloudy
05:00 Legend Double Dagger 15.1 3.3 45 1 9 10.0 97.21     LegendNANA
06:00 Legend Double Dagger 14.1 5.5 56 1 12 10.0 97.23     LegendNANA
07:00 Legend Double Dagger 13.5 6.9 64 1 7 10.0 97.25     Cloudy
08:00 Legend Double Dagger 17.4 4.1 41 4 7 10.0 97.27     LegendNANA
09:00 Legend Double Dagger 18.4 4.7 40 32 13 10.0 97.25     LegendNANA
10:00 Legend Double Dagger 19.7 4.4 36 35 11 10.0 97.23     Mostly Cloudy
11:00 Legend Double Dagger 20.7 4.0 33 31 14 10.0 97.16     LegendNANA
12:00 Legend Double Dagger 21.6 4.8 33 20 9 10.0 97.09     LegendNANA
13:00 Legend Double Dagger 22.2 3.0 28   0 10.0 97.04     Mostly Cloudy
14:00 Legend Double Dagger 21.5 2.9 29 17 6 10.0 97.02     LegendNANA
15:00 Legend Double Dagger 21.4 2.3 28 31 24 10.0 97.04     LegendNANA
16:00 Legend Double Dagger 22.1 2.9 28 36 32 10.0 97.08     Mostly Cloudy
17:00 Legend Double Dagger 20.6 4.4 34 1 36 10.0 97.14     LegendNANA
18:00 Legend Double Dagger 18.4 4.7 40 1 32 10.0 97.21     LegendNANA
19:00 Legend Double Dagger 16.7 4.8 45 36 25 10.0 97.28     Mostly Cloudy
20:00 Legend Double Dagger 15.4 3.6 45 35 18 10.0 97.32     LegendNANA
21:00 Legend Double Dagger 12.8 3.8 54 34 13 10.0 97.35     LegendNANA
22:00 Legend Double Dagger 12.2 4.0 57 5 8 10.0 97.35     Mainly Clear
23:00 Legend Double Dagger 9.1 3.1 66 29 4 10.0 97.34     LegendNANA

Notes on Data Quality.

Legend

  • E = Estimated
  • M = Missing
  • NA = Not Available
  • ‡ = Partner data that is not subject to review by the National Climate Archives
Date modified: